| time (UTC) | temp C | wind direction | speed KPH | gust KPH | rain 1hr cm | rain 24hr cm | rain mn cm | humidity % | barometer mb |
| 20260506134725 | 8 | 241 | 22.5 | 33.8 | 0.00 | 0.00 | 0.00 | 47 | 1012.1 |
| 20260506132725 | 8 | 239 | 24.1 | 40.2 | 0.00 | 0.00 | 0.00 | 46 | 1012.0 |
| 20260506130724 | 8 | 239 | 25.7 | 37.0 | 0.00 | 0.00 | 0.00 | 48 | 1012.0 |
| 20260506124724 | 8 | 244 | 24.1 | 38.6 | 0.00 | 0.00 | 0.00 | 48 | 1012.0 |
| 20260506122724 | 8 | 241 | 27.4 | 40.2 | 0.00 | 0.00 | 0.00 | 47 | 1011.9 |
| 20260506120725 | 8 | 247 | 25.7 | 46.7 | 0.00 | 0.00 | 0.00 | 48 | 1011.8 |
| 20260506114725 | 7 | 254 | 27.4 | 38.6 | 0.00 | 0.00 | 0.00 | 46 | 1011.6 |
| 20260506112725 | 7 | 250 | 29.0 | 43.5 | 0.00 | 0.00 | 0.00 | 51 | 1011.6 |
| 20260506110724 | 7 | 253 | 25.7 | 43.5 | 0.00 | 0.00 | 0.00 | 53 | 1011.4 |
| 20260506104725 | 6 | 253 | 29.0 | 41.8 | 0.00 | 0.00 | 0.00 | 53 | 1011.2 |
| 20260506102726 | 6 | 259 | 27.4 | 45.1 | 0.00 | 0.00 | 0.00 | 54 | 1011.0 |
| 20260506100727 | 6 | 262 | 32.2 | 46.7 | 0.00 | 0.00 | 0.00 | 56 | 1010.9 |
| 20260506094727 | 6 | 263 | 30.6 | 43.5 | 0.00 | 0.00 | 0.00 | 57 | 1010.6 |
| 20260506092726 | 6 | 260 | 25.7 | 40.2 | 0.00 | 0.00 | 0.00 | 58 | 1010.4 |
| 20260506090726 | 6 | 251 | 27.4 | 38.6 | 0.00 | 0.00 | 0.00 | 59 | 1010.3 |
| 20260506084727 | 6 | 249 | 27.4 | 41.8 | 0.00 | 0.00 | 0.00 | 58 | 1010.1 |
| 20260506082727 | 6 | 260 | 27.4 | 40.2 | 0.00 | 0.00 | 0.00 | 59 | 1009.9 |
| 20260506080726 | 5 | 259 | 25.7 | 40.2 | 0.00 | 0.00 | 0.00 | 59 | 1009.7 |
| 20260506072727 | 5 | 258 | 25.7 | 38.6 | 0.00 | 0.00 | 0.00 | 61 | 1009.3 |
| 20260506070726 | 5 | 250 | 25.7 | 38.6 | 0.00 | 0.00 | 0.00 | 60 | 1009.1 |
| 20260506060725 | 4 | 270 | 24.1 | 40.2 | 0.00 | 0.00 | 0.00 | 64 | 1008.7 |
| 20260506050726 | 3 | 270 | 22.5 | 38.6 | 0.00 | 0.00 | 0.00 | 66 | 1008.2 |
| 20260506044726 | 3 | 272 | 25.7 | 40.2 | 0.00 | 0.00 | 0.00 | 65 | 1008.0 |
| 20260506042725 | 3 | 273 | 20.9 | 38.6 | 0.00 | 0.00 | 0.00 | 64 | 1007.8 |
| 20260506040725 | 3 | 279 | 22.5 | 45.1 | 0.00 | 0.00 | 0.00 | 64 | 1007.6 |
| 20260506034726 | 3 | 277 | 19.3 | 37.0 | 0.00 | 0.00 | 0.00 | 66 | 1007.3 |
| 20260506032725 | 3 | 280 | 22.5 | 37.0 | 0.00 | 0.00 | 0.00 | 65 | 1007.2 |
| 20260506030725 | 3 | 274 | 22.5 | 35.4 | 0.00 | 0.00 | 0.00 | 66 | 1007.1 |
| 20260506024725 | 3 | 276 | 19.3 | 40.2 | 0.00 | 0.00 | 0.00 | 65 | 1007.0 |
| 20260506022725 | 3 | 277 | 20.9 | 33.8 | 0.00 | 0.00 | 0.00 | 64 | 1006.8 |
| 20260506020725 | 3 | 275 | 20.9 | 41.8 | 0.00 | 0.00 | 0.00 | 63 | 1006.8 |
| 20260506014725 | 3 | 280 | 16.1 | 30.6 | 0.00 | 0.00 | 0.00 | 64 | 1006.6 |
| 20260506012725 | 3 | 280 | 20.9 | 35.4 | 0.00 | 0.00 | 0.00 | 60 | 1006.5 |
| 20260506010725 | 4 | 280 | 19.3 | 40.2 | 0.00 | 0.00 | 0.00 | 62 | 1006.3 |
| 20260506004724 | 4 | 281 | 19.3 | 30.6 | 0.00 | 0.00 | 0.00 | 61 | 1006.1 |
| 20260506002725 | 4 | 283 | 17.7 | 32.2 | 0.00 | 0.00 | 0.00 | 61 | 1006.0 |
| 20260506000725 | 4 | 290 | 17.7 | 29.0 | 0.00 | 0.00 | 0.00 | 59 | 1005.8 |
| 20260505234724 | 5 | 291 | 20.9 | 37.0 | 0.00 | 0.00 | 0.00 | 59 | 1005.6 |
| 20260505232725 | 5 | 278 | 20.9 | 32.2 | 0.00 | 0.00 | 0.00 | 66 | 1005.5 |
| 20260505230725 | 5 | 277 | 16.1 | 25.7 | 0.00 | 0.00 | 0.00 | 67 | 1005.4 |
| 20260505224724 | 5 | 272 | 14.5 | 27.4 | 0.00 | 0.00 | 0.00 | 67 | 1005.4 |
| 20260505222724 | 5 | 281 | 12.9 | 22.5 | 0.00 | 0.00 | 0.00 | 62 | 1005.3 |
| 20260505220725 | 5 | 287 | 14.5 | 24.1 | 0.00 | 0.00 | 0.00 | 57 | 1005.2 |
| 20260505214724 | 5 | 283 | 12.9 | 20.9 | 0.00 | 0.00 | 0.00 | 58 | 1005.1 |
| 20260505212724 | 5 | 284 | 9.7 | 19.3 | 0.00 | 0.00 | 0.00 | 58 | 1004.9 |
| 20260505210723 | 5 | 285 | 16.1 | 24.1 | 0.00 | 0.00 | 0.00 | 55 | 1004.8 |
| 20260505204724 | 6 | 284 | 14.5 | 25.7 | 0.00 | 0.00 | 0.00 | 57 | 1004.6 |
| 20260505202725 | 6 | 274 | 16.1 | 27.4 | 0.00 | 0.00 | 0.00 | 63 | 1004.4 |
| 20260505200723 | 6 | 263 | 19.3 | 32.2 | 0.00 | 0.00 | 0.00 | 61 | 1004.3 |
| 20260505194723 | 6 | 250 | 27.4 | 40.2 | 0.00 | 0.00 | 0.00 | 56 | 1004.2 |
| 20260505192724 | 6 | 252 | 22.5 | 38.6 | 0.00 | 0.00 | 0.00 | 53 | 1004.1 |
| 20260505190723 | 6 | 247 | 20.9 | 32.2 | 0.00 | 0.00 | 0.00 | 52 | 1004.0 |
| 20260505184723 | 6 | 248 | 20.9 | 30.6 | 0.00 | 0.13 | 0.00 | 55 | 1004.0 |
| 20260505182723 | 6 | 247 | 20.9 | 33.8 | 0.00 | 0.13 | 0.00 | 55 | 1003.8 |
| 20260505180723 | 6 | 250 | 19.3 | 29.0 | 0.00 | 0.13 | 0.00 | 55 | 1003.8 |
| 20260505174723 | 6 | 241 | 19.3 | 30.6 | 0.00 | 0.15 | 0.00 | 54 | 1003.6 |
| 20260505172722 | 7 | 245 | 22.5 | 35.4 | 0.00 | 0.15 | 0.00 | 54 | 1003.7 |
| 20260505170722 | 7 | 250 | 25.7 | 35.4 | 0.00 | 0.15 | 0.00 | 52 | 1003.6 |
| 20260505164723 | 7 | 246 | 27.4 | 37.0 | 0.00 | 0.15 | 0.00 | 48 | 1003.6 |
| 20260505162723 | 8 | 247 | 22.5 | 33.8 | 0.00 | 0.15 | 0.00 | 47 | 1003.5 |
| 20260505160723 | 8 | 257 | 24.1 | 41.8 | 0.00 | 0.15 | 0.00 | 51 | 1003.5 |
| 20260505152722 | 8 | 252 | 27.4 | 40.2 | 0.00 | 0.15 | 0.00 | 51 | 1003.4 |
| 20260505150723 | 8 | 255 | 37.0 | 49.9 | 0.00 | 0.15 | 0.00 | 42 | 1003.3 |